When you browse on this site, cookies collect data to enhance your experience and personalize the content and advertising you see.
Visit our Privacy Policy to learn more. By continuing to use the site, you agree to this use of cookies and data.
  • In Czech Republic
  • List of Countries
  • For 7 days
  • Water Temperature
  • Weather Map
  • Weather Widgets
  • user-avatar
    Login

    Hourly Weather Fria

    Today, 19 October, Saturday

    Time Temperature Precipitation Wind Pressure Humidity
    00:00 +24°C° 0 mm 0 mps 753 mmHg 95%
    01:00 +24°C° 0 mm 0 mps 752 mmHg 96%
    02:00 +24°C° 0 mm 0 mps 752 mmHg 96%
    03:00 +24°C° 0 mm 0 mps 752 mmHg 96%
    04:00 +24°C° 0 mm 0 mps 752 mmHg 96%
    05:00 +23°C° 0 mm 0 mps 752 mmHg 97%
    06:00 +25°C° 0 mm 0 mps 752 mmHg 93%
    07:00 +26°C° 0 mm 0 mps 753 mmHg 90%
    08:00 +27°C° 0 mm 0 mps 753 mmHg 87%
    09:00 +28°C° 0 mm 0 mps 753 mmHg 81%
    10:00 +30°C° 0 mm 0 mps 753 mmHg 76%
    11:00 +33°C° 0 mm 1 mps 753 mmHg 70%
    12:00 +33°C° 0.1 mm 1 mps 752 mmHg 69%
    13:00 +33°C° 0.1 mm 1 mps 751 mmHg 67%
    14:00 +34°C° 0.1 mm 2 mps 751 mmHg 66%
    15:00 +32°C° 1.8 mm 2 mps 751 mmHg 74%
    16:00 +30°C° 1.8 mm 2 mps 751 mmHg 81%
    17:00 +29°C° 1.8 mm 2 mps 751 mmHg 88%
    18:00 +28°C° 1.1 mm 1 mps 751 mmHg 91%
    19:00 +27°C° 1.1 mm 1 mps 752 mmHg 93%
    20:00 +25°C° 1.1 mm 0 mps 753 mmHg 95%
    21:00 +25°C° 0 mm 0 mps 753 mmHg 96%
    22:00 +24°C° 0 mm 0 mps 753 mmHg 96%
    23:00 +24°C° 0 mm 0 mps 753 mmHg 96%

    Tomorrow, 20 October, Sunday

    Time Temperature Precipitation Wind Pressure Humidity
    00:00 +24°C° 0 mm 0 mps 752 mmHg 97%
    01:00 +24°C° 0 mm 0 mps 752 mmHg 97%
    02:00 +24°C° 0 mm 0 mps 752 mmHg 97%
    03:00 +24°C° 0 mm 0 mps 752 mmHg 97%
    04:00 +24°C° 0 mm 0 mps 752 mmHg 97%
    05:00 +24°C° 0 mm 0 mps 751 mmHg 97%
    06:00 +25°C° 0.1 mm 0 mps 752 mmHg 95%
    07:00 +26°C° 0.1 mm 0 mps 753 mmHg 92%
    08:00 +26°C° 0.1 mm 0 mps 753 mmHg 90%
    09:00 +28°C° 0 mm 0 mps 753 mmHg 83%
    10:00 +31°C° 0 mm 1 mps 753 mmHg 76%
    11:00 +33°C° 0 mm 1 mps 753 mmHg 70%
    12:00 +33°C° 0.2 mm 1 mps 752 mmHg 69%
    13:00 +33°C° 0.2 mm 1 mps 751 mmHg 69%
    14:00 +34°C° 0.2 mm 2 mps 751 mmHg 69%
    15:00 +32°C° 0.4 mm 2 mps 751 mmHg 75%
    16:00 +31°C° 0.4 mm 2 mps 751 mmHg 80%
    17:00 +30°C° 0.4 mm 2 mps 751 mmHg 86%
    18:00 +29°C° 0.9 mm 1 mps 751 mmHg 89%
    19:00 +28°C° 0.9 mm 1 mps 752 mmHg 92%
    20:00 +27°C° 0.9 mm 1 mps 753 mmHg 95%
    21:00 +26°C° 0 mm 1 mps 753 mmHg 95%
    22:00 +26°C° 0 mm 1 mps 753 mmHg 95%
    23:00 +24°C° 0 mm 0 mps 753 mmHg 95%

    Day after tomorrow, 21 October, Monday

    Time Temperature Precipitation Wind Pressure Humidity
    00:00 +24°C° 0 mm 0 mps 752 mmHg 95%
    01:00 +24°C° 0 mm 0 mps 752 mmHg 95%
    02:00 +24°C° 0 mm 0 mps 752 mmHg 95%
    03:00 +23°C° 0 mm 0 mps 751 mmHg 96%
    04:00 +23°C° 0 mm 0 mps 751 mmHg 96%
    05:00 +23°C° 0 mm 0 mps 751 mmHg 96%
    06:00 +25°C° 0 mm 0 mps 752 mmHg 93%
    07:00 +26°C° 0 mm 0 mps 753 mmHg 90%
    08:00 +27°C° 0 mm 0 mps 753 mmHg 87%
    09:00 +30°C° 0.1 mm 1 mps 753 mmHg 82%
    10:00 +31°C° 0.1 mm 1 mps 753 mmHg 77%
    11:00 +32°C° 0.1 mm 1 mps 753 mmHg 73%
    12:00 +32°C° 0 mm 1 mps 752 mmHg 71%
    13:00 +33°C° 0 mm 1 mps 751 mmHg 69%
    14:00 +34°C° 0 mm 2 mps 750 mmHg 67%
    15:00 +32°C° 0.8 mm 2 mps 751 mmHg 73%
    16:00 +31°C° 0.8 mm 2 mps 751 mmHg 80%
    17:00 +29°C° 0.8 mm 2 mps 751 mmHg 86%
    18:00 +29°C° 3.2 mm 2 mps 752 mmHg 89%
    19:00 +28°C° 3.2 mm 2 mps 752 mmHg 91%
    20:00 +27°C° 3.2 mm 1 mps 753 mmHg 94%
    21:00 +26°C° 0 mm 1 mps 753 mmHg 94%
    22:00 +26°C° 0 mm 1 mps 753 mmHg 95%
    23:00 +24°C° 0 mm 0 mps 752 mmHg 95%

    22 October, Tuesday

    Time Temperature Precipitation Wind Pressure Humidity
    00:00 +24°C° 0 mm 0 mps 752 mmHg 95%
    01:00 +24°C° 0 mm 0 mps 751 mmHg 95%
    02:00 +23°C° 0 mm 0 mps 751 mmHg 95%
    03:00 +23°C° 0.5 mm 0 mps 751 mmHg 95%
    04:00 +23°C° 0.5 mm 0 mps 751 mmHg 96%
    05:00 +25°C° 0.5 mm 1 mps 751 mmHg 96%
    06:00 +25°C° 0.6 mm 1 mps 752 mmHg 95%
    07:00 +26°C° 0.6 mm 1 mps 752 mmHg 95%
    08:00 +26°C° 0.6 mm 1 mps 753 mmHg 94%
    09:00 +25°C° 0.7 mm 0 mps 752 mmHg 91%
    10:00 +26°C° 0.7 mm 0 mps 752 mmHg 89%
    11:00 +27°C° 0.7 mm 0 mps 752 mmHg 86%
    12:00 +29°C° 0.9 mm 1 mps 751 mmHg 83%
    13:00 +30°C° 0.9 mm 1 mps 750 mmHg 80%
    14:00 +31°C° 0.9 mm 2 mps 749 mmHg 77%
    15:00 +30°C° 1.3 mm 1 mps 749 mmHg 81%
    16:00 +29°C° 1.3 mm 1 mps 750 mmHg 86%
    17:00 +28°C° 1.3 mm 1 mps 750 mmHg 91%
    18:00 +28°C° 2.2 mm 1 mps 750 mmHg 91%
    19:00 +27°C° 2.2 mm 1 mps 751 mmHg 91%
    20:00 +27°C° 2.2 mm 1 mps 751 mmHg 91%
    21:00 +26°C° 0 mm 1 mps 751 mmHg 92%
    22:00 +24°C° 0 mm 0 mps 751 mmHg 93%
    23:00 +24°C° 0 mm 0 mps 751 mmHg 94%

    23 October, Wednesday

    Time Temperature Precipitation Wind Pressure Humidity
    00:00 +24°C° 0.1 mm 0 mps 750 mmHg 94%
    01:00 +24°C° 0.1 mm 0 mps 750 mmHg 94%
    02:00 +24°C° 0.1 mm 0 mps 750 mmHg 94%
    03:00 +23°C° 0.1 mm 0 mps 750 mmHg 94%
    04:00 +23°C° 0.1 mm 0 mps 750 mmHg 94%
    05:00 +23°C° 0.1 mm 0 mps 750 mmHg 94%
    06:00 +24°C° 0 mm 0 mps 750 mmHg 94%
    07:00 +24°C° 0 mm 0 mps 751 mmHg 93%
    08:00 +26°C° 0 mm 1 mps 751 mmHg 92%
    09:00 +28°C° 0 mm 1 mps 751 mmHg 85%
    10:00 +30°C° 0 mm 1 mps 751 mmHg 78%
    11:00 +32°C° 0 mm 1 mps 751 mmHg 71%
    12:00 +31°C° 0.5 mm 1 mps 751 mmHg 73%
    13:00 +31°C° 0.5 mm 1 mps 750 mmHg 74%
    14:00 +31°C° 0.5 mm 2 mps 749 mmHg 76%
    15:00 +30°C° 0.3 mm 2 mps 749 mmHg 80%
    16:00 +29°C° 0.3 mm 1 mps 750 mmHg 84%
    17:00 +28°C° 0.3 mm 1 mps 750 mmHg 89%
    18:00 +27°C° 0 mm 1 mps 750 mmHg 91%
    19:00 +27°C° 0 mm 1 mps 751 mmHg 93%
    20:00 +24°C° 0 mm 0 mps 751 mmHg 95%
    21:00 +24°C° 0.1 mm 0 mps 751 mmHg 95%
    22:00 +23°C° 0.1 mm 0 mps 751 mmHg 95%
    23:00 +23°C° 0.1 mm 0 mps 752 mmHg 96%

    24 October, Thursday

    Time Temperature Precipitation Wind Pressure Humidity
    00:00 +23°C° 0.1 mm 0 mps 751 mmHg 96%
    01:00 +23°C° 0.1 mm 0 mps 751 mmHg 96%
    02:00 +23°C° 0.1 mm 0 mps 751 mmHg 96%
    03:00 +23°C° 0.1 mm 0 mps 751 mmHg 96%
    04:00 +23°C° 0.1 mm 0 mps 751 mmHg 96%
    05:00 +22°C° 0.1 mm 0 mps 751 mmHg 97%
    06:00 +24°C° 0 mm 0 mps 751 mmHg 93%
    07:00 +25°C° 0 mm 0 mps 752 mmHg 89%
    08:00 +26°C° 0 mm 0 mps 752 mmHg 85%
    09:00 +28°C° 0 mm 0 mps 752 mmHg 78%
    10:00 +30°C° 0 mm 0 mps 752 mmHg 71%
    11:00 +32°C° 0 mm 0 mps 752 mmHg 64%
    12:00 +32°C° 0.3 mm 0 mps 751 mmHg 65%
    13:00 +32°C° 0.3 mm 0 mps 750 mmHg 65%
    14:00 +31°C° 0.3 mm 0 mps 750 mmHg 66%
    15:00 +32°C° 1.1 mm 1 mps 750 mmHg 73%
    16:00 +31°C° 1.1 mm 1 mps 750 mmHg 80%
    17:00 +29°C° 1.1 mm 1 mps 751 mmHg 86%
    18:00 +28°C° 2.1 mm 1 mps 751 mmHg 89%
    19:00 +27°C° 2.1 mm 1 mps 752 mmHg 92%
    20:00 +26°C° 2.1 mm 1 mps 752 mmHg 95%
    21:00 +26°C° 0.5 mm 1 mps 752 mmHg 95%
    22:00 +26°C° 0.5 mm 1 mps 752 mmHg 95%
    23:00 +24°C° 0.5 mm 0 mps 752 mmHg 95%
    Show more